Regional Weather Roundup
Issued by NWS

Home | Current Version | Previous Version | Graphics & Text | Print | Product List | Glossary On
Versions: 1 2 3 4 5 6 7 8 9 10 11 12 13 14 15 16 17 18 19 20 21 22 23 24 25 26 27 28 29 30 31 32 33 34 35 36 37 38 39 40 41 42 43 44 45 46 47 48 49 50
293
ASUS45 KABQ 220210
RWRNM
NEW MEXICO REGIONAL WEATHER ROUNDUP
NATIONAL WEATHER SERVICE ALBUQUERQUE NM
800 PM MDT THU MAY 21 2015

NOTE: "FAIR" MEANS FEW OR NO CLOUDS BELOW 12,000 FEET AGL WITH NO
       SIGNIFICANT WEATHER OR OBSTRUCTIONS TO VISION.

      THIS PRODUCT IS RELEASED AS TWO VERSIONS.  ONE VERSION NEAR
      THE TOP OF THE HOUR CONTAINING PRELIMINARY DATA FROM ALBUQUERQUE
      AND OTHER STATIONS.  A FINAL VERSION WITH ADDITIONAL DATA IS
      ISSUED ABOUT 10 MINUTES AFTER THE HOUR.

NMZ501-503-504-510>518-220300-
NORTHWEST PLATEAU/NORTHCENTRAL MOUNTAINS

CITY           SKY/WX    TMP DP  RH WIND       PRES   REMARKS
FARMINGTON     CLEAR     61  39  44 E17G29    29.91R
LOS ALAMOS     CLOUDY    43  43 100 SE3       30.17R
SANTA FE       LGT RAIN  47  43  86 E9        30.11S
TAOS           CLOUDY    45  37  76 S7        30.18R
ANGEL FIRE     RAIN      38  36  91 S5        30.24R WCI  35

$$
NMZ402-403-502-505>509-220300-
WESTCENTRAL MOUNTAINS/SOUTHWEST MOUNTAINS

CITY           SKY/WX    TMP DP  RH WIND       PRES   REMARKS
GALLUP         LGT RAIN  59  30  33 VRB6      29.97R
GRANTS         CLOUDY    50  44  79 SE18      30.03R
SILVER CITY      N/A     64  32  29 SE7       30.00S

$$
NMZ407-409-411-412-220300-
SOUTHERN DESERTS

CITY           SKY/WX    TMP DP  RH WIND       PRES   REMARKS
LORDSBURG      FAIR      73  14  10 S15G28    29.91R
DEMING         CLEAR     72  36  26 S7        29.93R
LAS CRUCES     MOCLDY    63  54  73 E7        29.97F
HOLLOMAN AFB   LGT RAIN  55  54  94 S10       30.03S FOG
ALAMOGORDO     LGT RAIN  55  54  94 W21G35    30.06R
T OR C         MOCLDY    67  38  34 S12       29.95R

$$
NMZ519>523-220300-
CENTRAL VALLEYS/CENTRAL HIGHLANDS

CITY           SKY/WX    TMP DP  RH WIND       PRES   REMARKS
ALBUQUERQUE    CLOUDY    52  44  74 E30G38    30.03S
DOUBLE EAGLE   DRIZZLE   50  48  93 NE6       30.06S
MORIARTY ARPT  RAIN      44  41  88 SE9G16    30.16R
CLINES CORNERS RAIN      40  39  97 E15       30.15F FOG     WCI  32
BELEN          FAIR      54  46  74 N5        30.02R
SOCORRO        MOCLDY    55  47  73 CALM      30.02R

$$
NMZ524>526-539-540-220300-
SOUTHCENTRAL MOUNTAINS

CITY           SKY/WX    TMP DP  RH WIND       PRES   REMARKS
RUIDOSO        LGT RAIN  45  45 100 SE9       30.18R

$$
NMZ527>531-220300-
NORTHEAST HIGHLANDS/NORTHEAST PLAINS

CITY           SKY/WX    TMP DP  RH WIND       PRES   REMARKS
LAS VEGAS      RAIN      42  40  92 W3        30.19S FOG
RATON          NOT AVBL
CLAYTON        LGT RAIN  47  45  93 S15       30.15R

$$
NMZ532>537-220300-
EASTCENTRAL PLAINS

CITY           SKY/WX    TMP DP  RH WIND       PRES   REMARKS
TUCUMCARI      LGT RAIN  50  47  89 E10       30.13F FOG
CANNON AFB     CLOUDY    46  46 100 E9        30.15R FOG
CLOVIS AIRPORT CLOUDY    46  45  93 E10       30.16S

$$
NMZ028-029-538-220300-
SOUTHEAST PLAINS

CITY           SKY/WX    TMP DP  RH WIND       PRES   REMARKS
ROSWELL        LGT RAIN  51  50  96 SE7       30.12R VSB 1
ARTESIA        DRIZZLE   52  52 100 SE7       30.13R
CARLSBAD       CLOUDY    53  52  96 SE7       30.10R FOG
HOBBS          CLOUDY    50  50 100 E12       30.11F FOG


$$



USA.gov is the U.S. government's official web portal to all federal, state and local government web resources and services.